Time,TemperatureF,DewpointF,PressureIn,WindDirection,WindDirectionDegrees,WindSpeedMPH,WindSpeedGustMPH,Humidity,HourlyPrecipIn,Conditions,Clouds,dailyrainin,SoftwareType,DateUTC
2013-05-30 00:01:00,45.1,36.0,28.38,SSW,197,2.2,4.0,70,0.00,,---,0.00,VWS V14.01,2013-05-30 07:01:00,
2013-05-30 00:07:00,45.1,36.0,28.38,SSW,192,2.7,2.7,70,0.00,,---,0.00,VWS V14.01,2013-05-30 07:07:00,
2013-05-30 00:12:00,45.1,36.0,28.38,SSW,207,0.0,0.0,70,0.00,,---,0.00,VWS V14.01,2013-05-30 07:12:00,
2013-05-30 00:17:00,45.1,36.0,28.38,SSW,204,0.0,0.0,70,0.00,,---,0.00,VWS V14.01,2013-05-30 07:17:00,
2013-05-30 00:22:00,45.0,35.8,28.38,SSW,194,0.0,0.0,70,0.00,,---,0.00,VWS V14.01,2013-05-30 07:22:00,
2013-05-30 00:28:00,45.0,35.8,28.38,SSW,194,0.0,0.0,70,0.00,,---,0.00,VWS V14.01,2013-05-30 07:28:00,
2013-05-30 00:33:00,45.0,35.8,28.38,SSW,199,0.0,0.0,70,0.00,,---,0.00,VWS V14.01,2013-05-30 07:33:00,
2013-05-30 00:38:00,44.8,35.6,28.38,SSW,199,0.0,0.0,70,0.00,,---,0.00,VWS V14.01,2013-05-30 07:38:00,
2013-05-30 00:43:00,44.8,35.6,28.38,South,178,2.2,3.1,70,0.00,,---,0.00,VWS V14.01,2013-05-30 07:43:00,
2013-05-30 00:48:00,44.6,35.4,28.38,SSW,204,0.0,2.2,70,0.00,,---,0.00,VWS V14.01,2013-05-30 07:48:00,
2013-05-30 00:54:00,44.6,35.4,28.38,SSW,208,0.0,0.0,70,0.00,,---,0.00,VWS V14.01,2013-05-30 07:54:00,
2013-05-30 00:59:00,44.6,35.4,28.38,SSW,197,0.0,0.0,70,0.00,,---,0.00,VWS V14.01,2013-05-30 07:59:00,
2013-05-30 01:04:00,44.6,35.4,28.38,South,190,0.0,0.0,70,0.00,,---,0.00,VWS V14.01,2013-05-30 08:04:00,
2013-05-30 01:09:00,44.6,35.4,28.38,South,186,0.0,0.0,70,0.00,,---,0.00,VWS V14.01,2013-05-30 08:09:00,
2013-05-30 01:14:00,44.8,36.0,28.38,SW,223,0.0,0.0,71,0.00,,---,0.00,VWS V14.01,2013-05-30 08:14:00,
2013-05-30 01:20:00,44.8,36.0,28.38,SE,129,0.0,0.0,71,0.00,,---,0.00,VWS V14.01,2013-05-30 08:20:00,
2013-05-30 01:25:00,44.8,36.0,28.38,South,180,0.0,0.0,71,0.00,,---,0.00,VWS V14.01,2013-05-30 08:25:00,
2013-05-30 01:30:00,45.0,36.1,28.38,SSE,154,0.0,0.0,71,0.00,,---,0.00,VWS V14.01,2013-05-30 08:30:00,
2013-05-30 01:35:00,45.0,36.1,28.38,SSW,204,0.0,0.0,71,0.00,,---,0.00,VWS V14.01,2013-05-30 08:35:00,
2013-05-30 01:41:00,45.0,36.1,28.38,South,183,0.0,0.0,71,0.00,,---,0.00,VWS V14.01,2013-05-30 08:41:00,
2013-05-30 01:46:00,45.0,36.1,28.38,South,183,0.0,0.0,71,0.00,,---,0.00,VWS V14.01,2013-05-30 08:46:00,
2013-05-30 01:51:00,45.0,36.1,28.38,SSW,204,0.0,0.0,71,0.00,,---,0.00,VWS V14.01,2013-05-30 08:51:00,
2013-05-30 01:56:00,45.0,36.1,28.38,SSW,203,0.0,0.0,71,0.00,,---,0.00,VWS V14.01,2013-05-30 08:56:00,
2013-05-30 02:01:00,45.0,36.1,28.38,South,185,0.0,0.0,71,0.00,,---,0.00,VWS V14.01,2013-05-30 09:01:00,
2013-05-30 02:07:00,45.0,36.1,28.38,SSW,195,0.0,0.0,71,0.00,,---,0.00,VWS V14.01,2013-05-30 09:07:00,
2013-05-30 02:12:00,45.0,36.1,28.38,SE,134,0.0,0.0,71,0.00,,---,0.00,VWS V14.01,2013-05-30 09:12:00,
2013-05-30 02:17:00,45.0,36.1,28.38,SSW,192,0.0,0.0,71,0.00,,---,0.00,VWS V14.01,2013-05-30 09:17:00,
2013-05-30 02:22:00,45.0,36.1,28.38,SW,217,2.2,2.2,71,0.00,,---,0.00,VWS V14.01,2013-05-30 09:22:00,
2013-05-30 02:27:00,45.0,36.1,28.38,SW,223,0.0,2.2,71,0.00,,---,0.00,VWS V14.01,2013-05-30 09:27:00,
2013-05-30 02:33:00,45.0,36.1,28.38,SW,217,0.0,0.0,71,0.00,,---,0.00,VWS V14.01,2013-05-30 09:33:00,
2013-05-30 02:38:00,44.8,36.0,28.38,South,181,3.6,3.6,71,0.00,,---,0.00,VWS V14.01,2013-05-30 09:38:00,
2013-05-30 02:43:00,44.8,36.0,28.38,South,191,0.0,3.6,71,0.00,,---,0.00,VWS V14.01,2013-05-30 09:43:00,
2013-05-30 02:48:00,44.8,36.0,28.38,SW,214,0.0,0.0,71,0.00,,---,0.00,VWS V14.01,2013-05-30 09:48:00,
2013-05-30 02:54:00,44.8,36.0,28.38,South,182,0.0,2.2,71,0.00,,---,0.00,VWS V14.01,2013-05-30 09:54:00,
2013-05-30 02:59:00,44.8,36.0,28.38,SSW,196,2.2,2.2,71,0.00,,---,0.00,VWS V14.01,2013-05-30 09:59:00,
2013-05-30 03:04:00,44.8,36.3,28.38,SSW,198,0.0,2.2,72,0.00,,---,0.00,VWS V14.01,2013-05-30 10:04:00,
2013-05-30 03:09:00,44.8,36.3,28.38,SSW,212,0.0,3.1,72,0.00,,---,0.00,VWS V14.01,2013-05-30 10:09:00,
2013-05-30 03:15:00,44.6,36.2,28.38,South,181,2.2,2.7,72,0.00,,---,0.00,VWS V14.01,2013-05-30 10:15:00,
2013-05-30 03:20:00,44.6,36.2,28.38,SSW,201,0.0,3.1,72,0.00,,---,0.00,VWS V14.01,2013-05-30 10:20:00,
2013-05-30 03:25:00,44.6,36.2,28.38,South,178,4.0,4.0,72,0.00,,---,0.00,VWS V14.01,2013-05-30 10:25:00,
2013-05-30 03:30:00,44.6,36.2,28.38,South,178,4.0,4.0,72,0.00,,---,0.00,VWS V14.01,2013-05-30 10:30:00,
2013-05-30 03:36:00,44.6,36.2,28.38,SSW,206,0.0,0.0,72,0.00,,---,0.00,VWS V14.01,2013-05-30 10:36:00,
2013-05-30 03:41:00,44.6,36.2,28.41,South,178,0.0,0.0,72,0.00,,---,0.00,VWS V14.01,2013-05-30 10:41:00,
2013-05-30 03:46:00,44.6,36.2,28.41,SSW,211,2.7,2.7,72,0.00,,---,0.00,VWS V14.01,2013-05-30 10:46:00,
2013-05-30 03:51:00,44.4,36.0,28.41,South,173,3.1,3.1,72,0.00,,---,0.00,VWS V14.01,2013-05-30 10:51:00,
2013-05-30 03:56:00,44.4,36.0,28.41,SSW,198,0.0,2.2,72,0.00,,---,0.00,VWS V14.01,2013-05-30 10:56:00,
2013-05-30 04:02:00,44.4,36.0,28.41,SSE,164,0.0,3.1,72,0.00,,---,0.00,VWS V14.01,2013-05-30 11:02:00,
2013-05-30 04:07:00,44.4,36.0,28.41,SSW,204,0.0,0.0,72,0.00,,---,0.00,VWS V14.01,2013-05-30 11:07:00,
2013-05-30 04:12:00,44.4,36.0,28.41,SSW,198,0.0,0.0,72,0.00,,---,0.00,VWS V14.01,2013-05-30 11:12:00,
2013-05-30 04:17:00,44.2,35.8,28.41,SSW,202,0.0,0.0,72,0.00,,---,0.00,VWS V14.01,2013-05-30 11:17:00,
2013-05-30 04:22:00,44.2,35.8,28.41,SSW,209,0.0,0.0,72,0.00,,---,0.00,VWS V14.01,2013-05-30 11:22:00,
2013-05-30 04:28:00,44.2,35.8,28.41,SSW,198,0.0,2.7,72,0.00,,---,0.00,VWS V14.01,2013-05-30 11:28:00,
2013-05-30 04:33:00,44.1,35.6,28.41,SSW,198,0.0,0.0,72,0.00,,---,0.00,VWS V14.01,2013-05-30 11:33:00,
2013-05-30 04:38:00,44.1,35.6,28.41,South,187,0.0,2.2,72,0.00,,---,0.00,VWS V14.01,2013-05-30 11:38:00,
2013-05-30 04:43:00,44.1,35.6,28.41,SSW,203,0.0,0.0,72,0.00,,---,0.00,VWS V14.01,2013-05-30 11:43:00,
2013-05-30 04:48:00,44.1,35.6,28.41,South,188,0.0,0.0,72,0.00,,---,0.00,VWS V14.01,2013-05-30 11:48:00,
2013-05-30 04:54:00,44.1,35.6,28.41,SW,217,0.0,0.0,72,0.00,,---,0.00,VWS V14.01,2013-05-30 11:54:00,
2013-05-30 04:59:00,43.9,35.5,28.41,SSW,207,0.0,0.0,72,0.00,,---,0.00,VWS V14.01,2013-05-30 11:59:00,
2013-05-30 05:04:00,43.7,35.3,28.41,SSW,207,0.0,0.0,72,0.00,,---,0.00,VWS V14.01,2013-05-30 12:04:00,
2013-05-30 05:09:00,43.7,35.3,28.41,South,187,0.0,0.0,72,0.00,,---,0.00,VWS V14.01,2013-05-30 12:09:00,
2013-05-30 05:15:00,43.7,35.3,28.41,SSW,192,0.0,0.0,72,0.00,,---,0.00,VWS V14.01,2013-05-30 12:15:00,
2013-05-30 05:20:00,43.7,35.3,28.41,SSW,192,0.0,0.0,72,0.00,,---,0.00,VWS V14.01,2013-05-30 12:20:00,
2013-05-30 05:25:00,43.7,35.3,28.41,SSW,192,0.0,0.0,72,0.00,,---,0.00,VWS V14.01,2013-05-30 12:25:00,
2013-05-30 05:30:00,43.7,35.3,28.41,SSW,192,0.0,0.0,72,0.00,,---,0.00,VWS V14.01,2013-05-30 12:30:00,
2013-05-30 05:36:00,43.7,35.3,28.41,SSW,192,0.0,0.0,72,0.00,,---,0.00,VWS V14.01,2013-05-30 12:36:00,
2013-05-30 05:41:00,43.9,35.8,28.41,SSW,197,0.0,0.0,73,0.00,,---,0.00,VWS V14.01,2013-05-30 12:41:00,
2013-05-30 05:46:00,43.9,35.8,28.41,SSW,197,0.0,0.0,73,0.00,,---,0.00,VWS V14.01,2013-05-30 12:46:00,
2013-05-30 05:51:00,43.9,35.8,28.41,SSW,192,0.0,0.0,73,0.00,,---,0.00,VWS V14.01,2013-05-30 12:51:00,
2013-05-30 05:57:00,44.1,36.0,28.41,SSW,195,0.0,0.0,73,0.00,,---,0.00,VWS V14.01,2013-05-30 12:57:00,
2013-05-30 06:02:00,44.1,36.0,28.41,SSW,195,0.0,0.0,73,0.00,,---,0.00,VWS V14.01,2013-05-30 13:02:00,
2013-05-30 06:07:00,44.2,36.2,28.41,SSW,195,0.0,0.0,73,0.00,,---,0.00,VWS V14.01,2013-05-30 13:07:00,
2013-05-30 06:12:00,44.2,36.2,28.41,SSW,195,0.0,0.0,73,0.00,,---,0.00,VWS V14.01,2013-05-30 13:12:00,
2013-05-30 06:17:00,44.2,36.2,28.41,SSW,195,0.0,0.0,73,0.00,,---,0.00,VWS V14.01,2013-05-30 13:17:00,
2013-05-30 06:23:00,44.4,36.3,28.41,South,180,0.0,0.0,73,0.00,,---,0.00,VWS V14.01,2013-05-30 13:23:00,
2013-05-30 06:28:00,44.6,36.2,28.41,SSW,192,0.0,0.0,72,0.00,,---,0.00,VWS V14.01,2013-05-30 13:28:00,
2013-05-30 06:33:00,44.6,36.2,28.41,SSW,212,0.0,0.0,72,0.00,,---,0.00,VWS V14.01,2013-05-30 13:33:00,
2013-05-30 06:38:00,44.8,36.3,28.41,SSW,212,0.0,0.0,72,0.00,,---,0.00,VWS V14.01,2013-05-30 13:38:00,
2013-05-30 06:44:00,45.0,36.5,28.41,SSW,212,0.0,0.0,72,0.00,,---,0.00,VWS V14.01,2013-05-30 13:44:00,
2013-05-30 06:49:00,45.1,36.7,28.41,SSW,212,0.0,0.0,72,0.00,,---,0.00,VWS V14.01,2013-05-30 13:49:00,
2013-05-30 06:54:00,45.3,36.8,28.41,SSW,201,0.0,0.0,72,0.00,,---,0.00,VWS V14.01,2013-05-30 13:54:00,
2013-05-30 07:00:00,45.5,37.0,28.44,SSW,195,0.0,0.0,72,0.00,,---,0.00,VWS V14.01,2013-05-30 14:00:00,
2013-05-30 07:05:00,45.5,37.0,28.44,SW,218,0.0,0.0,72,0.00,,---,0.00,VWS V14.01,2013-05-30 14:05:00,
2013-05-30 07:10:00,45.7,36.8,28.44,SSW,205,0.0,0.0,71,0.00,,---,0.00,VWS V14.01,2013-05-30 14:10:00,
2013-05-30 07:15:00,45.7,36.5,28.44,SSW,198,0.0,0.0,70,0.00,,---,0.00,VWS V14.01,2013-05-30 14:15:00,
2013-05-30 07:20:00,45.7,36.5,28.44,South,185,0.0,0.0,70,0.00,,---,0.00,VWS V14.01,2013-05-30 14:20:00,
2013-05-30 07:25:00,45.9,35.9,28.44,South,182,3.6,4.0,68,0.00,,---,0.00,VWS V14.01,2013-05-30 14:25:00,
2013-05-30 07:30:00,45.9,35.9,28.44,South,185,0.0,3.6,68,0.00,,---,0.00,VWS V14.01,2013-05-30 14:30:00,
2013-05-30 07:35:00,46.6,36.2,28.44,South,185,0.0,0.0,67,0.00,,---,0.00,VWS V14.01,2013-05-30 14:35:00,
2013-05-30 07:40:00,47.3,36.9,28.44,SW,224,0.0,0.0,67,0.00,,---,0.00,VWS V14.01,2013-05-30 14:40:00,
2013-05-30 07:45:00,47.3,36.9,28.44,SSW,196,0.0,0.0,67,0.00,,---,0.00,VWS V14.01,2013-05-30 14:45:00,
2013-05-30 07:51:00,47.8,36.7,28.44,SSW,200,0.0,0.0,65,0.00,,---,0.00,VWS V14.01,2013-05-30 14:51:00,
2013-05-30 07:56:00,47.8,36.7,28.44,SSE,167,0.0,0.0,65,0.00,,---,0.00,VWS V14.01,2013-05-30 14:56:00,
2013-05-30 08:01:00,48.0,34.0,28.44,SSW,194,0.0,0.0,58,0.00,,---,0.00,VWS V14.01,2013-05-30 15:01:00,
2013-05-30 08:06:00,48.2,34.1,28.44,South,177,0.0,0.0,58,0.00,,---,0.00,VWS V14.01,2013-05-30 15:06:00,
2013-05-30 08:11:00,48.7,32.8,28.44,South,187,0.0,0.0,54,0.00,,---,0.00,VWS V14.01,2013-05-30 15:11:00,
2013-05-30 08:17:00,49.5,32.1,28.44,SSW,202,0.0,0.0,51,0.00,,---,0.00,VWS V14.01,2013-05-30 15:17:00,
2013-05-30 08:22:00,49.5,32.1,28.44,SSW,197,0.0,0.0,51,0.00,,---,0.00,VWS V14.01,2013-05-30 15:22:00,
2013-05-30 08:27:00,49.8,28.2,28.44,SSW,197,4.0,7.6,43,0.00,,---,0.00,VWS V14.01,2013-05-30 15:27:00,
2013-05-30 08:32:00,49.8,27.7,28.44,SSW,207,4.9,4.9,42,0.00,,---,0.00,VWS V14.01,2013-05-30 15:32:00,
2013-05-30 08:37:00,49.3,26.0,28.44,SW,224,5.8,5.8,40,0.00,,---,0.00,VWS V14.01,2013-05-30 15:37:00,
2013-05-30 08:43:00,49.3,27.2,28.44,SSW,212,2.7,2.7,42,0.00,,---,0.00,VWS V14.01,2013-05-30 15:43:00,
2013-05-30 08:48:00,49.1,26.4,28.44,South,186,2.7,5.8,41,0.00,,---,0.00,VWS V14.01,2013-05-30 15:48:00,
2013-05-30 08:53:00,48.9,26.3,28.44,South,179,0.0,3.6,41,0.00,,---,0.00,VWS V14.01,2013-05-30 15:53:00,
2013-05-30 08:58:00,48.9,26.3,28.44,South,172,0.0,0.0,41,0.00,,---,0.00,VWS V14.01,2013-05-30 15:58:00,
2013-05-30 09:04:00,48.9,26.3,28.44,SSW,192,2.2,5.8,41,0.00,,---,0.00,VWS V14.01,2013-05-30 16:04:00,
2013-05-30 09:09:00,50.9,25.6,28.44,South,183,3.1,6.3,37,0.00,,---,0.00,VWS V14.01,2013-05-30 16:09:00,
2013-05-30 09:14:00,51.3,25.2,28.44,SSW,208,5.4,5.4,36,0.00,,---,0.00,VWS V14.01,2013-05-30 16:14:00,
2013-05-30 09:19:00,52.0,25.9,28.44,WSW,253,0.0,4.0,36,0.00,,---,0.00,VWS V14.01,2013-05-30 16:19:00,
2013-05-30 09:24:00,53.2,27.0,28.44,SSW,210,0.0,0.0,36,0.00,,---,0.00,VWS V14.01,2013-05-30 16:24:00,
2013-05-30 09:30:00,53.2,27.0,28.44,SW,214,2.7,3.6,36,0.00,,---,0.00,VWS V14.01,2013-05-30 16:30:00,
2013-05-30 09:35:00,55.9,22.5,28.44,South,188,4.0,4.0,27,0.00,,---,0.00,VWS V14.01,2013-05-30 16:35:00,
2013-05-30 09:40:00,57.0,23.4,28.44,SSW,204,6.3,6.3,27,0.00,,---,0.00,VWS V14.01,2013-05-30 16:40:00,
2013-05-30 09:45:00,57.7,21.2,28.44,South,172,3.6,3.6,24,0.00,,---,0.00,VWS V14.01,2013-05-30 16:45:00,
2013-05-30 09:50:00,55.4,20.2,28.44,South,186,7.6,7.6,25,0.00,,---,0.00,VWS V14.01,2013-05-30 16:50:00,
2013-05-30 09:56:00,55.4,20.2,28.44,South,176,4.0,4.0,25,0.00,,---,0.00,VWS V14.01,2013-05-30 16:56:00,
2013-05-30 10:01:00,54.0,19.9,28.44,South,177,3.6,3.6,26,0.00,,---,0.00,VWS V14.01,2013-05-30 17:01:00,
2013-05-30 10:06:00,54.0,19.9,28.44,South,175,4.0,4.0,26,0.00,,---,0.00,VWS V14.01,2013-05-30 17:06:00,
2013-05-30 10:11:00,55.6,20.3,28.44,South,177,5.4,5.4,25,0.00,,---,0.00,VWS V14.01,2013-05-30 17:11:00,
2013-05-30 10:16:00,55.6,20.3,28.44,South,172,6.3,6.3,25,0.00,,---,0.00,VWS V14.01,2013-05-30 17:16:00,
2013-05-30 10:22:00,55.4,15.0,28.44,South,169,3.1,7.6,20,0.00,,---,0.00,VWS V14.01,2013-05-30 17:22:00,
2013-05-30 10:27:00,55.4,17.2,28.44,SE,137,0.0,0.0,22,0.00,,---,0.00,VWS V14.01,2013-05-30 17:27:00,
2013-05-30 10:32:00,55.2,18.1,28.44,SSE,152,0.0,0.0,23,0.00,,---,0.00,VWS V14.01,2013-05-30 17:32:00,
2013-05-30 10:37:00,55.0,14.7,28.44,SSE,163,0.0,4.0,20,0.00,,---,0.00,VWS V14.01,2013-05-30 17:37:00,
2013-05-30 10:43:00,55.0,14.7,28.47,South,178,0.0,3.1,20,0.00,,---,0.00,VWS V14.01,2013-05-30 17:43:00,
2013-05-30 10:48:00,55.4,20.2,28.47,South,171,0.0,0.0,25,0.00,,---,0.00,VWS V14.01,2013-05-30 17:48:00,
2013-05-30 10:53:00,55.9,17.7,28.47,South,187,5.4,5.4,22,0.00,,---,0.00,VWS V14.01,2013-05-30 17:53:00,
2013-05-30 10:58:00,57.4,15.5,28.47,South,187,5.4,5.4,19,0.00,,---,0.00,VWS V14.01,2013-05-30 17:58:00,
2013-05-30 11:04:00,57.6,19.0,28.47,SSE,150,3.1,5.4,22,0.00,,---,0.00,VWS V14.01,2013-05-30 18:04:00,
2013-05-30 11:09:00,57.9,19.3,28.47,ESE,122,6.3,6.3,22,0.00,,---,0.00,VWS V14.01,2013-05-30 18:09:00,
2013-05-30 11:14:00,57.9,15.9,28.47,ESE,103,0.0,6.3,19,0.00,,---,0.00,VWS V14.01,2013-05-30 18:14:00,
2013-05-30 11:19:00,57.0,18.6,28.47,SSE,155,0.0,2.2,22,0.00,,---,0.00,VWS V14.01,2013-05-30 18:19:00,
2013-05-30 11:25:00,58.3,16.2,28.47,NW,314,2.7,2.7,19,0.00,,---,0.00,VWS V14.01,2013-05-30 18:25:00,
2013-05-30 11:30:00,58.6,16.5,28.47,NNW,339,3.1,3.6,19,0.00,,---,0.00,VWS V14.01,2013-05-30 18:30:00,
2013-05-30 11:35:00,57.9,15.9,28.47,SW,231,0.0,0.0,19,0.00,,---,0.00,VWS V14.01,2013-05-30 18:35:00,
2013-05-30 11:40:00,57.9,15.9,28.47,WNW,291,3.6,3.6,19,0.00,,---,0.00,VWS V14.01,2013-05-30 18:40:00,
2013-05-30 11:46:00,56.1,21.7,28.47,North,9,4.9,4.9,26,0.00,,---,0.00,VWS V14.01,2013-05-30 18:46:00,
2013-05-30 11:51:00,57.2,21.7,28.47,South,174,2.2,2.2,25,0.00,,---,0.00,VWS V14.01,2013-05-30 18:51:00,
2013-05-30 11:56:00,58.1,22.5,28.47,SW,233,2.7,2.7,25,0.00,,---,0.00,VWS V14.01,2013-05-30 18:56:00,
2013-05-30 12:02:00,58.1,22.5,28.47,NNE,22,2.7,2.7,25,0.00,,---,0.00,VWS V14.01,2013-05-30 19:02:00,
2013-05-30 12:07:00,58.8,23.1,28.47,SSE,168,3.6,3.6,25,0.00,,---,0.00,VWS V14.01,2013-05-30 19:07:00,
2013-05-30 12:12:00,59.4,22.6,28.47,North,357,3.1,3.1,24,0.00,,---,0.00,VWS V14.01,2013-05-30 19:12:00,
2013-05-30 12:17:00,59.9,23.0,28.47,East,96,0.0,0.0,24,0.00,,---,0.00,VWS V14.01,2013-05-30 19:17:00,
2013-05-30 12:22:00,60.4,21.4,28.47,SE,128,2.7,5.4,22,0.00,,---,0.00,VWS V14.01,2013-05-30 19:22:00,
2013-05-30 12:28:00,60.4,21.4,28.47,NNE,23,2.2,2.7,22,0.00,,---,0.00,VWS V14.01,2013-05-30 19:28:00,
2013-05-30 12:33:00,62.6,15.8,28.47,NNE,23,2.2,2.2,16,0.00,,---,0.00,VWS V14.01,2013-05-30 19:33:00,
2013-05-30 12:38:00,61.5,18.9,28.47,ENE,74,3.1,4.0,19,0.00,,---,0.00,VWS V14.01,2013-05-30 19:38:00,
2013-05-30 12:43:00,58.3,19.6,28.47,ENE,75,0.0,2.7,22,0.00,,---,0.00,VWS V14.01,2013-05-30 19:43:00,
2013-05-30 12:48:00,58.3,19.6,28.47,East,86,3.1,4.0,22,0.00,,---,0.00,VWS V14.01,2013-05-30 19:48:00,
2013-05-30 12:54:00,58.3,19.6,28.47,ENE,67,0.0,2.7,22,0.00,,---,0.00,VWS V14.01,2013-05-30 19:54:00,
2013-05-30 12:59:00,58.1,19.5,28.47,NNW,341,7.2,7.2,22,0.00,,---,0.00,VWS V14.01,2013-05-30 19:59:00,
2013-05-30 13:04:00,58.1,19.5,28.47,SW,231,0.0,7.2,22,0.00,,---,0.00,VWS V14.01,2013-05-30 20:04:00,
2013-05-30 13:10:00,59.9,21.0,28.47,SSW,192,4.9,4.9,22,0.00,,---,0.00,VWS V14.01,2013-05-30 20:10:00,
2013-05-30 13:15:00,59.9,21.0,28.47,SE,134,4.0,4.9,22,0.00,,---,0.00,VWS V14.01,2013-05-30 20:15:00,
2013-05-30 13:20:00,59.9,21.0,28.47,SSE,150,3.6,3.6,22,0.00,,---,0.00,VWS V14.01,2013-05-30 20:20:00,
2013-05-30 13:25:00,59.9,15.0,28.47,SW,220,2.7,2.7,17,0.00,,---,0.00,VWS V14.01,2013-05-30 20:25:00,
2013-05-30 13:31:00,60.6,15.6,28.47,South,183,0.0,0.0,17,0.00,,---,0.00,VWS V14.01,2013-05-30 20:31:00,
2013-05-30 13:36:00,60.6,15.6,28.47,SSE,162,0.0,0.0,17,0.00,,---,0.00,VWS V14.01,2013-05-30 20:36:00,
2013-05-30 13:41:00,60.6,15.6,28.47,East,84,2.2,2.7,17,0.00,,---,0.00,VWS V14.01,2013-05-30 20:41:00,
2013-05-30 13:46:00,60.6,15.6,28.47,ESE,104,3.1,3.1,17,0.00,,---,0.00,VWS V14.01,2013-05-30 20:46:00,
2013-05-30 13:51:00,61.9,15.2,28.47,South,182,0.0,5.8,16,0.00,,---,0.00,VWS V14.01,2013-05-30 20:51:00,
2013-05-30 13:57:00,61.9,15.2,28.47,SE,134,3.1,3.1,16,0.00,,---,0.00,VWS V14.01,2013-05-30 20:57:00,
2013-05-30 14:02:00,63.1,11.5,28.47,SSE,159,3.1,3.6,13,0.00,,---,0.00,VWS V14.01,2013-05-30 21:02:00,
2013-05-30 14:07:00,63.1,11.5,28.47,WSW,253,2.7,2.7,13,0.00,,---,0.00,VWS V14.01,2013-05-30 21:07:00,
2013-05-30 14:12:00,63.1,11.5,28.47,South,180,4.0,4.0,13,0.00,,---,0.00,VWS V14.01,2013-05-30 21:12:00,
2013-05-30 14:17:00,59.4,17.1,28.50,South,184,2.2,3.1,19,0.00,,---,0.00,VWS V14.01,2013-05-30 21:17:00,
2013-05-30 14:23:00,59.4,17.1,28.50,SW,228,2.2,2.7,19,0.00,,---,0.00,VWS V14.01,2013-05-30 21:23:00,
2013-05-30 14:28:00,60.1,17.7,28.50,SSW,207,5.8,5.8,19,0.00,,---,0.00,VWS V14.01,2013-05-30 21:28:00,
2013-05-30 14:33:00,60.1,17.7,28.50,WSW,251,3.1,3.1,19,0.00,,---,0.00,VWS V14.01,2013-05-30 21:33:00,
2013-05-30 14:38:00,61.3,14.8,28.50,South,175,5.4,5.4,16,0.00,,---,0.00,VWS V14.01,2013-05-30 21:38:00,
2013-05-30 14:43:00,61.7,15.1,28.50,SSE,164,5.4,5.4,16,0.00,,---,0.00,VWS V14.01,2013-05-30 21:43:00,
2013-05-30 14:49:00,61.7,15.1,28.50,South,171,4.9,5.4,16,0.00,,---,0.00,VWS V14.01,2013-05-30 21:49:00,
2013-05-30 14:54:00,61.7,15.1,28.50,WSW,241,0.0,4.9,16,0.00,,---,0.00,VWS V14.01,2013-05-30 21:54:00,
2013-05-30 14:59:00,61.7,15.1,28.50,SSW,208,4.9,6.3,16,0.00,,---,0.00,VWS V14.01,2013-05-30 21:59:00,
2013-05-30 15:04:00,63.0,11.4,28.50,SSW,208,4.9,4.9,13,0.00,,---,0.00,VWS V14.01,2013-05-30 22:04:00,
2013-05-30 15:09:00,63.1,11.5,28.50,East,88,0.0,0.0,13,0.00,,---,0.00,VWS V14.01,2013-05-30 22:09:00,
2013-05-30 15:15:00,63.1,11.5,28.50,SSE,163,6.3,6.3,13,0.00,,---,0.00,VWS V14.01,2013-05-30 22:15:00,
2013-05-30 15:20:00,62.6,11.1,28.50,SE,125,3.1,6.3,13,0.00,,---,0.00,VWS V14.01,2013-05-30 22:20:00,
2013-05-30 15:25:00,61.0,11.5,28.50,South,172,0.0,0.0,14,0.00,,---,0.00,VWS V14.01,2013-05-30 22:25:00,
2013-05-30 15:30:00,60.3,10.9,28.50,SSW,195,2.7,3.1,14,0.00,,---,0.00,VWS V14.01,2013-05-30 22:30:00,
2013-05-30 15:35:00,59.4,10.2,28.50,SE,130,0.0,0.0,14,0.00,,---,0.00,VWS V14.01,2013-05-30 22:35:00,
2013-05-30 15:41:00,59.4,10.2,28.50,SW,214,0.0,0.0,14,0.00,,---,0.00,VWS V14.01,2013-05-30 22:41:00,
2013-05-30 15:46:00,57.6,13.1,28.50,SE,134,0.0,0.0,17,0.00,,---,0.00,VWS V14.01,2013-05-30 22:46:00,
2013-05-30 15:51:00,57.9,19.3,28.50,SSE,155,5.4,5.4,22,0.00,,---,0.00,VWS V14.01,2013-05-30 22:51:00,
2013-05-30 15:56:00,58.1,16.1,28.50,SSW,194,0.0,0.0,19,0.00,,---,0.00,VWS V14.01,2013-05-30 22:56:00,
2013-05-30 16:02:00,58.8,16.7,28.50,NNE,14,0.0,0.0,19,0.00,,---,0.00,VWS V14.01,2013-05-30 23:02:00,
2013-05-30 16:07:00,58.8,16.7,28.50,SW,235,0.0,0.0,19,0.00,,---,0.00,VWS V14.01,2013-05-30 23:07:00,
2013-05-30 16:12:00,58.8,16.7,28.50,South,172,0.0,2.2,19,0.00,,---,0.00,VWS V14.01,2013-05-30 23:12:00,
2013-05-30 16:17:00,59.7,17.4,28.50,ESE,114,4.0,4.0,19,0.00,,---,0.00,VWS V14.01,2013-05-30 23:17:00,
2013-05-30 16:22:00,60.1,15.1,28.50,SSW,203,0.0,4.0,17,0.00,,---,0.00,VWS V14.01,2013-05-30 23:22:00,
2013-05-30 16:28:00,60.1,15.1,28.50,SSW,203,0.0,0.0,17,0.00,,---,0.00,VWS V14.01,2013-05-30 23:28:00,
2013-05-30 16:33:00,60.1,15.1,28.50,SSE,147,4.9,4.9,17,0.00,,---,0.00,VWS V14.01,2013-05-30 23:33:00,
2013-05-30 16:38:00,58.6,9.6,28.50,SE,129,0.0,4.9,14,0.00,,---,0.00,VWS V14.01,2013-05-30 23:38:00,
2013-05-30 16:43:00,58.6,9.6,28.50,East,98,3.1,3.1,14,0.00,,---,0.00,VWS V14.01,2013-05-30 23:43:00,
2013-05-30 16:49:00,58.6,9.6,28.50,East,100,0.0,3.1,14,0.00,,---,0.00,VWS V14.01,2013-05-30 23:49:00,
2013-05-30 16:54:00,59.9,15.0,28.50,WNW,289,0.0,3.1,17,0.00,,---,0.00,VWS V14.01,2013-05-30 23:54:00,
2013-05-30 16:59:00,59.0,9.9,28.50,South,177,0.0,2.7,14,0.00,,---,0.00,VWS V14.01,2013-05-30 23:59:00,
2013-05-30 17:04:00,59.0,14.3,28.50,SSW,203,2.7,2.7,17,0.00,,---,0.00,VWS V14.01,2013-05-31 00:04:00,
2013-05-30 17:10:00,58.8,14.1,28.50,NNE,19,0.0,3.1,17,0.00,,---,0.00,VWS V14.01,2013-05-31 00:10:00,
2013-05-30 17:15:00,58.8,14.1,28.50,East,100,2.7,4.0,17,0.00,,---,0.00,VWS V14.01,2013-05-31 00:15:00,
2013-05-30 17:20:00,59.0,14.3,28.50,NNE,15,0.0,0.0,17,0.00,,---,0.00,VWS V14.01,2013-05-31 00:20:00,
2013-05-30 17:25:00,58.6,14.0,28.50,SSW,205,0.0,0.0,17,0.00,,---,0.00,VWS V14.01,2013-05-31 00:25:00,
2013-05-30 17:31:00,57.7,15.8,28.50,SSW,205,0.0,0.0,19,0.00,,---,0.00,VWS V14.01,2013-05-31 00:31:00,
2013-05-30 17:36:00,57.4,15.5,28.50,South,172,4.0,4.0,19,0.00,,---,0.00,VWS V14.01,2013-05-31 00:36:00,
2013-05-30 17:41:00,57.4,15.5,28.50,NW,305,0.0,3.1,19,0.00,,---,0.00,VWS V14.01,2013-05-31 00:41:00,
2013-05-30 17:47:00,56.3,21.0,28.50,NW,319,2.7,2.7,25,0.00,,---,0.00,VWS V14.01,2013-05-31 00:47:00,
2013-05-30 17:52:00,56.1,20.8,28.50,NNW,338,0.0,0.0,25,0.00,,---,0.00,VWS V14.01,2013-05-31 00:52:00,
2013-05-30 17:57:00,56.1,20.8,28.50,NNE,23,0.0,0.0,25,0.00,,---,0.00,VWS V14.01,2013-05-31 00:57:00,
2013-05-30 18:03:00,56.5,21.1,28.50,NNE,25,0.0,0.0,25,0.00,,---,0.00,VWS V14.01,2013-05-31 01:03:00,
2013-05-30 18:08:00,56.5,21.1,28.47,NW,315,0.0,4.0,25,0.00,,---,0.00,VWS V14.01,2013-05-31 01:08:00,
2013-05-30 18:13:00,56.5,21.1,28.47,South,189,2.2,2.2,25,0.00,,---,0.00,VWS V14.01,2013-05-31 01:13:00,
2013-05-30 18:18:00,56.5,21.1,28.47,SE,128,0.0,0.0,25,0.00,,---,0.00,VWS V14.01,2013-05-31 01:18:00,
2013-05-30 18:24:00,56.5,21.1,28.47,WNW,290,2.7,2.7,25,0.00,,---,0.00,VWS V14.01,2013-05-31 01:24:00,
2013-05-30 18:29:00,55.0,20.8,28.47,NW,325,0.0,2.7,26,0.00,,---,0.00,VWS V14.01,2013-05-31 01:29:00,
2013-05-30 18:34:00,55.0,20.8,28.50,NW,325,0.0,0.0,26,0.00,,---,0.00,VWS V14.01,2013-05-31 01:34:00,
2013-05-30 18:40:00,54.7,22.2,28.50,NE,37,0.0,0.0,28,0.00,,---,0.00,VWS V14.01,2013-05-31 01:40:00,
2013-05-30 18:45:00,54.5,21.2,28.50,SE,144,2.7,2.7,27,0.00,,---,0.00,VWS V14.01,2013-05-31 01:45:00,
2013-05-30 18:50:00,54.5,21.2,28.50,SE,144,0.0,2.7,27,0.00,,---,0.00,VWS V14.01,2013-05-31 01:50:00,
2013-05-30 18:55:00,54.3,21.9,28.50,SE,144,0.0,0.0,28,0.00,,---,0.00,VWS V14.01,2013-05-31 01:55:00,
2013-05-30 19:01:00,54.1,20.9,28.50,SE,144,0.0,0.0,27,0.00,,---,0.00,VWS V14.01,2013-05-31 02:01:00,
2013-05-30 19:06:00,54.1,20.9,28.50,SE,144,0.0,0.0,27,0.00,,---,0.00,VWS V14.01,2013-05-31 02:06:00,
2013-05-30 19:11:00,54.1,20.9,28.50,SE,144,0.0,0.0,27,0.00,,---,0.00,VWS V14.01,2013-05-31 02:11:00,
2013-05-30 19:16:00,53.8,20.6,28.50,SSE,147,0.0,0.0,27,0.00,,---,0.00,VWS V14.01,2013-05-31 02:16:00,
2013-05-30 19:22:00,53.4,21.1,28.50,SSE,147,0.0,0.0,28,0.00,,---,0.00,VWS V14.01,2013-05-31 02:22:00,
2013-05-30 19:27:00,53.4,21.1,28.50,SSE,147,0.0,0.0,28,0.00,,---,0.00,VWS V14.01,2013-05-31 02:27:00,
2013-05-30 19:32:00,53.4,21.1,28.50,SSE,147,0.0,0.0,28,0.00,,---,0.00,VWS V14.01,2013-05-31 02:32:00,
2013-05-30 19:37:00,53.4,21.1,28.50,SSE,147,0.0,0.0,28,0.00,,---,0.00,VWS V14.01,2013-05-31 02:37:00,
2013-05-30 19:43:00,53.4,21.1,28.50,SSE,147,0.0,0.0,28,0.00,,---,0.00,VWS V14.01,2013-05-31 02:43:00,
2013-05-30 19:48:00,52.9,20.7,28.50,SE,134,0.0,0.0,28,0.00,,---,0.00,VWS V14.01,2013-05-31 02:48:00,
2013-05-30 19:53:00,52.5,21.2,28.50,SE,134,0.0,0.0,29,0.00,,---,0.00,VWS V14.01,2013-05-31 02:53:00,
2013-05-30 19:58:00,52.5,21.2,28.50,SE,134,0.0,0.0,29,0.00,,---,0.00,VWS V14.01,2013-05-31 02:58:00,
2013-05-30 20:03:00,52.3,22.6,28.50,SE,134,0.0,0.0,31,0.00,,---,0.00,VWS V14.01,2013-05-31 03:03:00,
2013-05-30 20:09:00,52.0,23.1,28.50,SE,134,0.0,0.0,32,0.00,,---,0.00,VWS V14.01,2013-05-31 03:09:00,
2013-05-30 20:14:00,51.8,22.9,28.50,SE,134,0.0,0.0,32,0.00,,---,0.00,VWS V14.01,2013-05-31 03:14:00,
2013-05-30 20:19:00,51.8,22.9,28.50,SE,134,0.0,0.0,32,0.00,,---,0.00,VWS V14.01,2013-05-31 03:19:00,
2013-05-30 20:24:00,51.8,22.9,28.50,SE,134,0.0,0.0,32,0.00,,---,0.00,VWS V14.01,2013-05-31 03:24:00,
2013-05-30 20:30:00,51.4,24.0,28.50,SE,134,0.0,0.0,34,0.00,,---,0.00,VWS V14.01,2013-05-31 03:30:00,
2013-05-30 20:35:00,51.3,23.9,28.50,SE,134,0.0,0.0,34,0.00,,---,0.00,VWS V14.01,2013-05-31 03:35:00,
2013-05-30 20:40:00,51.3,23.9,28.50,SE,134,0.0,0.0,34,0.00,,---,0.00,VWS V14.01,2013-05-31 03:40:00,
2013-05-30 20:45:00,51.3,23.9,28.50,North,353,2.7,2.7,34,0.00,,---,0.00,VWS V14.01,2013-05-31 03:45:00,
2013-05-30 20:50:00,51.3,23.9,28.50,North,353,0.0,2.7,34,0.00,,---,0.00,VWS V14.01,2013-05-31 03:50:00,
2013-05-30 20:55:00,50.9,24.2,28.53,NNW,332,0.0,0.0,35,0.00,,---,0.00,VWS V14.01,2013-05-31 03:55:00,
2013-05-30 21:00:00,50.9,24.2,28.53,NNW,332,0.0,0.0,35,0.00,,---,0.00,VWS V14.01,2013-05-31 04:00:00,
2013-05-30 21:01:00,50.9,24.2,28.53,NNW,332,0.0,0.0,35,0.00,,---,0.00,VWS V14.01,2013-05-31 04:01:00,
2013-05-30 21:02:00,50.9,24.2,28.53,NNW,332,0.0,0.0,35,0.00,,---,0.00,VWS V14.01,2013-05-31 04:02:00,
2013-05-30 21:07:00,50.5,25.2,28.53,NNW,332,0.0,0.0,37,0.00,,---,0.00,VWS V14.01,2013-05-31 04:07:00,
2013-05-30 21:08:00,50.5,25.2,28.53,NNW,332,0.0,0.0,37,0.00,,---,0.00,VWS V14.01,2013-05-31 04:08:00,
2013-05-30 21:09:00,50.5,25.2,28.53,NNW,332,0.0,0.0,37,0.00,,---,0.00,VWS V14.01,2013-05-31 04:09:00,
2013-05-30 21:14:00,50.2,24.9,28.53,NNW,332,0.0,0.0,37,0.00,,---,0.00,VWS V14.01,2013-05-31 04:14:00,
2013-05-30 21:15:00,50.2,24.9,28.53,NNW,332,0.0,0.0,37,0.00,,---,0.00,VWS V14.01,2013-05-31 04:15:00,
2013-05-30 21:21:00,50.0,25.4,28.53,NNW,332,0.0,0.0,38,0.00,,---,0.00,VWS V14.01,2013-05-31 04:21:00,
2013-05-30 21:26:00,50.0,25.4,28.53,NNW,332,0.0,0.0,38,0.00,,---,0.00,VWS V14.01,2013-05-31 04:26:00,
2013-05-30 21:31:00,50.0,25.4,28.53,NNW,332,0.0,0.0,38,0.00,,---,0.00,VWS V14.01,2013-05-31 04:31:00,
2013-05-30 21:37:00,50.0,25.4,28.53,NNW,332,0.0,0.0,38,0.00,,---,0.00,VWS V14.01,2013-05-31 04:37:00,
2013-05-30 21:42:00,49.8,25.9,28.53,NNW,332,0.0,0.0,39,0.00,,---,0.00,VWS V14.01,2013-05-31 04:42:00,
2013-05-30 21:47:00,49.8,25.9,28.53,NNW,332,0.0,0.0,39,0.00,,---,0.00,VWS V14.01,2013-05-31 04:47:00,
2013-05-30 21:52:00,49.6,25.7,28.53,NNW,332,0.0,0.0,39,0.00,,---,0.00,VWS V14.01,2013-05-31 04:52:00,
2013-05-30 21:57:00,49.6,25.7,28.53,NNW,332,0.0,0.0,39,0.00,,---,0.00,VWS V14.01,2013-05-31 04:57:00,
2013-05-30 22:03:00,49.6,25.7,28.53,NNW,332,0.0,0.0,39,0.00,,---,0.00,VWS V14.01,2013-05-31 05:03:00,
2013-05-30 22:08:00,49.1,25.2,28.53,NNW,332,0.0,0.0,39,0.00,,---,0.00,VWS V14.01,2013-05-31 05:08:00,
2013-05-30 22:13:00,49.1,25.2,28.53,NNW,332,0.0,0.0,39,0.00,,---,0.00,VWS V14.01,2013-05-31 05:13:00,
2013-05-30 22:19:00,48.6,25.4,28.53,NNW,332,0.0,0.0,40,0.00,,---,0.00,VWS V14.01,2013-05-31 05:19:00,
2013-05-30 22:24:00,48.6,25.4,28.53,NW,320,2.7,2.7,40,0.00,,---,0.00,VWS V14.01,2013-05-31 05:24:00,
2013-05-30 22:29:00,48.4,25.2,28.53,NNW,329,2.2,3.6,40,0.00,,---,0.00,VWS V14.01,2013-05-31 05:29:00,
2013-05-30 22:34:00,48.4,25.2,28.53,NW,320,4.0,4.0,40,0.00,,---,0.00,VWS V14.01,2013-05-31 05:34:00,
2013-05-30 22:40:00,48.4,25.2,28.53,NW,308,2.7,4.0,40,0.00,,---,0.00,VWS V14.01,2013-05-31 05:40:00,
2013-05-30 22:45:00,48.4,25.2,28.53,NNW,330,0.0,2.7,40,0.00,,---,0.00,VWS V14.01,2013-05-31 05:45:00,
2013-05-30 22:50:00,47.7,25.7,28.53,NW,317,0.0,0.0,42,0.00,,---,0.00,VWS V14.01,2013-05-31 05:50:00,
2013-05-30 22:55:00,47.1,25.8,28.53,WNW,288,0.0,0.0,43,0.00,,---,0.00,VWS V14.01,2013-05-31 05:55:00,
2013-05-30 23:00:00,47.1,25.8,28.53,NNW,338,3.6,3.6,43,0.00,,---,0.00,VWS V14.01,2013-05-31 06:00:00,
2013-05-30 23:05:00,46.9,25.1,28.53,NNW,333,2.7,3.6,42,0.00,,---,0.00,VWS V14.01,2013-05-31 06:05:00,
2013-05-30 23:10:00,47.1,25.2,28.53,North,353,3.6,4.0,42,0.00,,---,0.00,VWS V14.01,2013-05-31 06:10:00,
2013-05-30 23:15:00,47.5,23.8,28.53,North,1,3.1,3.1,39,0.00,,---,0.00,VWS V14.01,2013-05-31 06:15:00,
2013-05-30 23:20:00,47.7,23.9,28.53,NNW,329,2.7,2.7,39,0.00,,---,0.00,VWS V14.01,2013-05-31 06:20:00,
2013-05-30 23:25:00,48.0,23.6,28.56,North,3,3.1,3.1,38,0.00,,---,0.00,VWS V14.01,2013-05-31 06:25:00,
2013-05-30 23:31:00,48.0,23.6,28.56,North,353,4.5,4.5,38,0.00,,---,0.00,VWS V14.01,2013-05-31 06:31:00,
2013-05-30 23:36:00,48.0,23.6,28.56,North,353,2.2,3.6,38,0.00,,---,0.00,VWS V14.01,2013-05-31 06:36:00,
2013-05-30 23:41:00,48.0,23.6,28.56,NNW,339,2.2,2.2,38,0.00,,---,0.00,VWS V14.01,2013-05-31 06:41:00,
2013-05-30 23:46:00,47.8,23.5,28.56,North,357,3.1,3.1,38,0.00,,---,0.00,VWS V14.01,2013-05-31 06:46:00,
2013-05-30 23:51:00,47.8,23.5,28.56,NNW,341,0.0,0.0,38,0.00,,---,0.00,VWS V14.01,2013-05-31 06:51:00,
2013-05-30 23:57:00,47.8,23.5,28.56,North,0,2.2,2.2,38,0.00,,---,0.00,VWS V14.01,2013-05-31 06:57:00,